User: anonymous   Login
Location: D�derode
(51.8092°N, 10.1065°E)
Time: 03:53:56
(UTC+00:00)
Language:

SL-16 R/B - Orbit

View from above orbital plane
View from above orbital plane
View from above satellite
View from above satellite

Ground track
Ground track

The orbit data is extracted from the following two-line orbital elements,

1 27006U 01056F   21059.59778346 -.00000040  00000-0  46590-5 0  9997
2 27006  99.5032 193.7941 0015084  40.2419 330.4501 13.70963850961720
Epoch (UTC): 28 February 2021 14:20:48
Eccentricity: 0.0015084
inclination: 99.5032°
perigee height: 985 km
apogee height: 1007 km
right ascension of ascending node: 193.7941°
argument of perigee: 40.2419°
revolutions per day: 13.70963850
mean anomaly at epoch: 330.4501°
orbit number at epoch: 96172

The dashed part of the orbit path shows where the satellite is in the earth's shadow,  

DLR